Weather History for KSMN - October, 2012

Change the Weather History Date:

Monday, October 8, 2012

  Actual Average Record
Temperature  
Mean Temperature 42 °F -  
Max Temperature 62 °F 59 °F 81 °F (1979)
Min Temperature 21 °F 31 °F 18 °F (1985)
Degree Days  
Heating Degree Days 24    
Moisture  
Dew Point 18 °F    
Average Humidity 48    
Maximum Humidity 80    
Minimum Humidity 22    
Precipitation  
Precipitation 0.00 in - - ()
Sea Level Pressure  
Sea Level Pressure 30.00 in    
Wind  
Wind Speed 1 mph (NNE)    
Max Wind Speed 5 mph    
Max Gust Speed -    
Visibility 10 miles    
Events      
Averages and records for this station are not official NWS values.
T = Trace of Precipitation, MM = Missing Value Source: NWS Daily Summary

Daily Weather History Graph

Daily Weather History Graph

Search for Another Location

Airport or City:

Trip Planner

Search our weather history database for the weather conditions in past years. The results will help you decide how hot, cold, wet, or windy it might be!

Date:

Astronomy

Oct. 08, 2012 Rise Set
Actual Time 7:43 AM MDT 7:01 PM MDT
Civil Twilight 7:13 AM MDT 7:31 PM MDT
Nautical Twilight 6:39 AM MDT 8:05 PM MDT
Astronomical Twilight 6:05 AM MDT 8:39 PM MDT
Moon 12:08 AM MDT (10/8) 3:10 PM MDT (10/8)
Length of Visible Light 12h 17m
Length of Day
11h 18m
Last Quarter, 46% of the Moon is Illuminated
Oct 8
Last Quarter
Oct 15
New
Oct 21
First Quarter
Oct 29
Full
Nov 6
Last Quarter

Hourly Weather History & Observations

Time (MDT) Temp. Windchill Dew Point Humidity Pressure Visibility Wind Dir Wind Speed Gust Speed Precip Events Conditions
12:35 AM 30.2 °F 26.7 °F 17.6 °F 60% 30.05 in 10.0 mi SE 3.5 mph - N/A   Clear
1:15 AM 28.4 °F - 17.6 °F 64% 30.06 in 10.0 mi Calm Calm - N/A   Clear
1:35 AM 26.6 °F - 14.0 °F 59% 30.06 in 10.0 mi Calm Calm - N/A   Clear
1:55 AM 28.4 °F - 15.8 °F 59% 30.06 in 10.0 mi Calm Calm - N/A   Clear
2:15 AM 28.4 °F - 15.8 °F 59% 30.06 in 10.0 mi Calm Calm - N/A   Clear
2:35 AM 26.6 °F - 14.0 °F 59% 30.06 in 10.0 mi Calm Calm - N/A   Clear
2:55 AM 26.6 °F - 15.8 °F 64% 30.06 in 10.0 mi Calm Calm - N/A   Clear
3:15 AM 28.4 °F - 15.8 °F 59% 30.06 in 10.0 mi Calm Calm - N/A   Clear
3:35 AM 26.6 °F - 14.0 °F 59% 30.06 in 10.0 mi Calm Calm - N/A   Clear
3:55 AM 24.8 °F - 14.0 °F 64% 30.06 in 10.0 mi Calm Calm - N/A   Clear
4:15 AM 24.8 °F - 12.2 °F 59% 30.06 in 10.0 mi Calm Calm - N/A   Clear
4:35 AM 26.6 °F - 15.8 °F 64% 30.06 in 10.0 mi Calm Calm - N/A   Clear
4:55 AM 24.8 °F - 15.8 °F 69% 30.07 in 10.0 mi Calm Calm - N/A   Clear
5:15 AM 26.6 °F - 21.2 °F 80% 30.06 in 10.0 mi Calm Calm - N/A   Clear
5:35 AM 24.8 °F - 15.8 °F 69% 30.06 in 10.0 mi Calm Calm - N/A   Clear
6:15 AM 24.8 °F - 15.8 °F 69% 30.07 in 10.0 mi Calm Calm - N/A   Clear
6:55 AM 23.0 °F - 12.2 °F 63% 30.08 in 10.0 mi Calm Calm - N/A   Clear
7:15 AM 21.2 °F - 15.8 °F 80% 30.08 in 10.0 mi Calm Calm - N/A   Clear
7:35 AM 21.2 °F - 14.0 °F 74% 30.08 in 10.0 mi Calm Calm - N/A   Clear
7:55 AM 21.2 °F - 12.2 °F 68% 30.08 in 10.0 mi Calm Calm - N/A   Clear
8:15 AM 21.2 °F - 12.2 °F 68% 30.09 in 10.0 mi Calm Calm - N/A   Clear
8:35 AM 21.2 °F - 15.8 °F 80% 30.09 in 9.0 mi Calm Calm - N/A   Clear
8:55 AM 24.8 °F - 15.8 °F 69% 30.09 in 10.0 mi Calm Calm - N/A   Clear
9:35 AM 30.2 °F - 19.4 °F 64% 30.07 in 10.0 mi Calm Calm - N/A   Clear
9:55 AM 32.0 °F - 19.4 °F 60% 30.07 in 10.0 mi Calm Calm - N/A   Clear
10:15 AM 33.8 °F - 21.2 °F 60% 30.06 in 10.0 mi Calm Calm - N/A   Clear
10:35 AM 35.6 °F - 21.2 °F 56% 30.05 in 10.0 mi Calm Calm - N/A   Clear
10:55 AM 37.4 °F - 19.4 °F 48% 30.05 in 10.0 mi Calm Calm - N/A   Clear
11:35 AM 39.2 °F - 19.4 °F 45% 30.03 in 10.0 mi Calm Calm - N/A   Clear
11:55 AM 42.8 °F - 19.4 °F 39% 30.03 in 10.0 mi Calm Calm - N/A   Clear
12:15 PM 46.4 °F - 19.4 °F 34% 30.02 in 10.0 mi Calm Calm - N/A   Clear
12:35 PM 46.4 °F 45.2 °F 19.4 °F 34% 30.01 in 10.0 mi SW 3.5 mph - N/A   Clear
12:55 PM 48.2 °F - 19.4 °F 32% 30.00 in 10.0 mi Calm Calm - N/A   Clear
1:15 PM 50.0 °F - 17.6 °F 28% 29.99 in 10.0 mi Calm Calm - N/A   Clear
1:35 PM 51.8 °F - 21.2 °F 30% 29.97 in 10.0 mi Calm Calm - N/A   Clear
1:55 PM 53.6 °F - 19.4 °F 26% 29.95 in 10.0 mi North 4.6 mph - N/A   Clear
2:15 PM 53.6 °F - 19.4 °F 26% 29.95 in 10.0 mi North 3.5 mph - N/A   Clear
2:35 PM 55.4 °F - 19.4 °F 25% 29.94 in 10.0 mi North 4.6 mph - N/A   Clear
2:55 PM 55.4 °F - 19.4 °F 25% 29.93 in 10.0 mi Calm Calm - N/A   Clear
3:35 PM 57.2 °F - 21.2 °F 25% 29.91 in 10.0 mi North 3.5 mph - N/A   Clear
3:55 PM 57.2 °F - 21.2 °F 25% 29.91 in 10.0 mi NNE 4.6 mph - N/A   Clear
4:35 PM 60.8 °F - 23.0 °F 23% 29.89 in 10.0 mi Calm Calm - N/A   Clear
4:55 PM 60.8 °F - 21.2 °F 22% 29.89 in 10.0 mi NW 3.5 mph - N/A   Clear
5:15 PM 60.8 °F - 21.2 °F 22% 29.89 in 10.0 mi Calm Calm - N/A   Clear
5:35 PM 60.8 °F - 21.2 °F 22% 29.88 in 10.0 mi Calm Calm - N/A   Clear
5:55 PM 62.6 °F - 24.8 °F 24% 29.88 in 10.0 mi SW 3.5 mph - N/A   Clear
6:15 PM 60.8 °F - 24.8 °F 25% 29.88 in 10.0 mi Calm Calm - N/A   Clear
6:35 PM 60.8 °F - 24.8 °F 25% 29.88 in 10.0 mi Calm Calm - N/A   Clear
6:55 PM 57.2 °F - 23.0 °F 27% 29.89 in 10.0 mi Calm Calm - N/A   Clear
7:35 PM 46.4 °F 45.2 °F 17.6 °F 32% 29.89 in 10.0 mi SE 3.5 mph - N/A   Clear
7:55 PM 46.4 °F 45.2 °F 17.6 °F 32% 29.90 in 10.0 mi SE 3.5 mph - N/A   Clear
8:15 PM 44.6 °F - 17.6 °F 34% 29.90 in 10.0 mi Calm Calm - N/A   Clear
8:55 PM 44.6 °F - 19.4 °F 37% 29.92 in 10.0 mi Calm Calm - N/A   Clear
9:15 PM 39.2 °F - 19.4 °F 45% 29.93 in 10.0 mi Calm Calm - N/A   Clear
9:55 PM 37.4 °F - 21.2 °F 52% 29.94 in 10.0 mi Calm Calm - N/A   Clear
10:15 PM 37.4 °F - 17.6 °F 45% 29.94 in 10.0 mi Calm Calm - N/A   Clear
10:35 PM 37.4 °F - 19.4 °F 48% 29.96 in 10.0 mi Calm Calm - N/A   Clear
10:55 PM 35.6 °F - 15.8 °F 44% 29.96 in 10.0 mi Calm Calm - N/A   Clear
11:15 PM 35.6 °F - 21.2 °F 56% 29.97 in 10.0 mi Calm Calm - N/A   Clear
11:35 PM 35.6 °F - 19.4 °F 52% 29.97 in 10.0 mi Calm Calm - N/A   Clear
11:55 PM 33.8 °F - 19.4 °F 56% 29.98 in 10.0 mi Calm Calm - N/A   Clear